Retour au catalogue

STARLINK-30140

ActifCommunicationsVLEO
NORAD 57458·PAYLOAD·🇺🇸 United States

Lancé Jul 28, 2023 depuis Cape Canaveral Space Force Station

Loading…

Prochains Passages (prochaines 24 heures)

TLE

FraisSource: CelesTrak SupGP

Époque: Sep 15, 2026, 01:36 UTC

1 57458C 23107B   26258.06715278  .00016991  00000+0  61532-3 0  2584
2 57458  43.0021 349.8977 0001469 262.6691  11.7305 15.27574751    12

Suivez STARLINK-30140 en temps réel avec AllMySat

Download on the App Store